Date String (YYYY-MM-DD hh:mm:ss) UTC,Instrument flags,Ambient pressure (hPa),Sample flow (lpm),Bypass flow (lpm),Sample temperature (°C),Ambient temperature (°C),ASC tube jacket temperature (°C),LED temperature (°C),Box temperature (°C),Sample RH (%),Span deviation,Mass concentration (μg/m³),Mass concentration (μg/m³),Mass concentration (μg/m³)
DateTimeUTC,F1_M11,P_M11,Q1_M11,Q2_M11,T1_M11,T2_M11,T3_M11,T4_M11,T5_M11,U1_M11,ZSPAN_M11,X0_M11,X2_M11,X1_M11
2022-03-30 07:00:00,,0818.7,5.00,0.00,24.4,23.4,00.0,33.5,26.1,13.5,0000.0,0002.72,0001.61,0001.32
2022-03-30 07:01:00,,0818.7,5.00,0.00,24.3,23.4,00.0,33.5,26.1,13.5,0000.0,0002.71,0001.59,0001.31
2022-03-30 07:02:00,,0818.8,4.99,0.00,24.3,23.4,00.0,33.5,26.0,13.5,0000.0,0002.80,0001.58,0001.30
2022-03-30 07:03:00,,0818.8,5.00,0.00,24.3,23.4,00.0,33.4,26.0,13.5,0000.0,0002.92,0001.61,0001.30
2022-03-30 07:04:00,,0818.8,5.00,0.00,24.3,23.4,00.0,33.4,26.0,13.4,0000.0,0002.91,0001.60,0001.31
2022-03-30 07:05:00,,0818.7,5.00,0.00,24.3,23.3,00.0,33.4,26.0,13.4,0000.0,0002.80,0001.59,0001.31
2022-03-30 07:06:00,,0818.7,5.00,0.00,24.3,23.3,00.0,33.4,26.0,13.3,0000.0,0002.75,0001.58,0001.31
2022-03-30 07:07:00,,0818.7,4.99,0.00,24.3,23.3,00.0,33.4,26.0,13.3,0000.0,0002.73,0001.58,0001.31
2022-03-30 07:08:00,,0818.7,5.00,0.00,24.3,23.3,00.0,33.4,26.0,13.3,0000.0,0002.61,0001.57,0001.32
2022-03-30 07:09:00,,0818.8,5.01,0.00,24.2,23.3,00.0,33.4,26.0,13.4,0000.0,0002.64,0001.59,0001.32
2022-03-30 07:10:00,,0818.8,5.00,0.00,24.2,23.3,00.0,33.4,25.9,13.4,0000.0,0002.77,0001.62,0001.33
2022-03-30 07:11:00,,0818.8,5.00,0.00,24.2,23.2,00.0,33.3,25.9,13.4,0000.0,0002.65,0001.58,0001.33
2022-03-30 07:12:00,,0818.7,5.00,0.00,24.2,23.2,00.0,33.3,25.9,13.4,0000.0,0002.60,0001.57,0001.33
2022-03-30 07:13:00,,0818.7,5.00,0.00,24.2,23.2,00.0,33.3,25.9,13.4,0000.0,0002.56,0001.57,0001.33
2022-03-30 07:14:00,,0818.7,5.00,0.00,24.2,23.2,00.0,33.3,25.9,13.3,0000.0,0002.42,0001.56,0001.32
2022-03-30 07:15:00,,0818.7,5.00,0.00,24.1,23.2,00.0,33.3,25.8,13.3,0000.0,0002.40,0001.54,0001.32
2022-03-30 07:16:00,,0818.7,5.00,0.00,24.1,23.2,00.0,33.3,25.8,13.2,0000.0,0002.77,0001.55,0001.31
2022-03-30 07:17:00,,0818.8,5.00,0.00,24.1,23.2,00.0,33.3,25.9,13.2,0000.0,0002.88,0001.53,0001.31
2022-03-30 07:18:00,,0818.8,5.00,0.00,24.1,23.1,00.0,33.2,25.8,13.3,0000.0,0003.14,0001.54,0001.33
2022-03-30 07:19:00,,0818.8,5.00,0.00,24.1,23.1,00.0,33.2,25.7,13.3,0000.0,0003.77,0001.57,0001.34
2022-03-30 07:20:00,,0818.8,5.00,0.00,24.1,23.1,00.0,33.2,25.7,13.3,0000.0,0003.94,0001.60,0001.37
2022-03-30 07:21:00,,0818.7,5.00,0.00,24.0,23.1,00.0,33.2,25.7,13.3,0000.0,0003.79,0001.62,0001.41
2022-03-30 07:22:00,,0818.7,5.00,0.00,24.0,23.1,00.0,33.2,25.7,13.3,0000.0,0003.61,0001.66,0001.45
2022-03-30 07:23:00,,0818.8,5.00,0.00,24.0,23.0,00.0,33.2,25.7,13.3,0000.0,0003.81,0001.73,0001.48
2022-03-30 07:24:00,,0818.7,5.00,0.00,24.0,23.0,00.0,33.2,25.7,13.4,0000.0,0003.86,0001.76,0001.51
2022-03-30 07:25:00,,0818.7,5.00,0.00,24.0,23.0,00.0,33.2,25.7,13.3,0000.0,0003.95,0001.80,0001.54
2022-03-30 07:26:00,,0818.7,5.00,0.00,24.0,23.0,00.0,33.1,25.7,13.3,0000.0,0004.17,0001.85,0001.56
2022-03-30 07:27:00,,0818.8,5.00,0.00,24.0,22.9,00.0,33.1,25.7,13.3,0000.0,0003.87,0001.86,0001.58
2022-03-30 07:28:00,,0818.8,5.00,0.00,24.0,22.9,00.0,33.1,25.7,13.4,0000.0,0003.82,0001.89,0001.59
2022-03-30 07:29:00,,0818.8,5.00,0.00,24.0,22.9,00.0,33.1,25.7,13.4,0000.0,0003.49,0001.90,0001.60
2022-03-30 07:30:00,,0818.8,5.00,0.00,23.9,22.8,00.0,33.1,25.7,13.4,0000.0,0003.14,0001.88,0001.59
2022-03-30 07:31:00,,0818.8,5.00,0.00,23.9,22.8,00.0,33.1,25.7,13.3,0000.0,0002.76,0001.89,0001.58
2022-03-30 07:32:00,,0818.8,5.00,0.00,23.9,22.8,00.0,33.1,25.6,13.3,0000.0,0002.80,0001.87,0001.56
2022-03-30 07:33:00,,0818.8,4.99,0.00,23.9,22.9,00.0,33.0,25.7,13.3,0000.0,0002.81,0001.85,0001.53
2022-03-30 07:34:00,,0818.8,5.01,0.00,23.9,22.9,00.0,33.0,25.7,13.3,0000.0,0002.60,0001.78,0001.51
2022-03-30 07:35:00,,0818.8,4.99,0.00,24.0,22.9,00.0,33.0,25.7,13.2,0000.0,0002.61,0001.80,0001.50
2022-03-30 07:36:00,,0818.7,5.00,0.00,24.0,23.0,00.0,33.0,25.7,13.2,0000.0,0002.62,0001.81,0001.50
2022-03-30 07:37:00,,0818.8,5.00,0.00,24.0,23.0,00.0,33.0,25.7,13.1,0000.0,0002.56,0001.80,0001.49
2022-03-30 07:38:00,,0818.8,5.00,0.00,24.0,22.9,00.0,33.0,25.7,13.2,0000.0,0002.45,0001.76,0001.49
2022-03-30 07:39:00,,0818.8,5.00,0.00,23.9,22.9,00.0,33.0,25.6,13.2,0000.0,0002.41,0001.74,0001.49
2022-03-30 07:40:00,,0818.8,5.00,0.00,23.9,22.8,00.0,33.0,25.6,13.3,0000.0,0002.41,0001.74,0001.49
2022-03-30 07:41:00,,0818.8,5.00,0.00,23.9,22.7,00.0,33.0,25.6,13.3,0000.0,0002.46,0001.75,0001.50
2022-03-30 07:42:00,,0818.8,5.00,0.00,23.9,22.7,00.0,33.0,25.6,13.4,0000.0,0002.55,0001.74,0001.50
2022-03-30 07:43:00,,0818.8,5.00,0.00,23.8,22.7,00.0,32.9,25.5,13.5,0000.0,0002.54,0001.76,0001.52
2022-03-30 07:44:00,,0818.8,4.99,0.00,23.8,22.7,00.0,32.9,25.5,13.6,0000.0,0002.48,0001.76,0001.53
2022-03-30 07:45:00,,0818.8,5.00,0.00,23.8,22.8,00.0,32.9,25.5,13.7,0000.0,0002.48,0001.76,0001.53
2022-03-30 07:46:00,,0818.8,5.00,0.00,23.8,22.8,00.0,32.9,25.5,13.8,0000.0,0002.49,0001.76,0001.53
2022-03-30 07:47:00,,0818.8,5.00,0.00,23.8,22.8,00.0,32.9,25.5,13.9,0000.0,0002.47,0001.74,0001.53
2022-03-30 07:48:00,,0818.8,5.00,0.00,23.7,22.7,00.0,32.9,25.4,14.0,0000.0,0002.35,0001.73,0001.55
2022-03-30 07:49:00,,0818.8,5.00,0.00,23.7,22.7,00.0,32.8,25.4,14.0,0000.0,0002.41,0001.78,0001.58
2022-03-30 07:50:00,,0818.8,5.00,0.00,23.7,22.7,00.0,32.8,25.3,14.1,0000.0,0002.46,0001.81,0001.60
2022-03-30 07:51:00,,0818.8,5.00,0.00,23.6,22.6,00.0,32.8,25.3,14.0,0000.0,0002.55,0001.87,0001.62
2022-03-30 07:52:00,,0818.8,5.00,0.00,23.6,22.6,00.0,32.8,25.2,14.1,0000.0,0002.51,0001.90,0001.64
2022-03-30 07:53:00,,0818.8,5.00,0.00,23.6,22.6,00.0,32.8,25.2,14.1,0000.0,0002.42,0001.91,0001.66
2022-03-30 07:54:00,,0818.8,5.00,0.00,23.6,22.6,00.0,32.7,25.2,14.1,0000.0,0002.43,0001.93,0001.68
2022-03-30 07:55:00,,0818.8,5.00,0.00,23.5,22.6,00.0,32.7,25.2,14.1,0000.0,0002.67,0001.96,0001.70
2022-03-30 07:56:00,,0818.8,5.01,0.00,23.5,22.6,00.0,32.7,25.2,14.1,0000.0,0002.78,0002.01,0001.74
2022-03-30 07:57:00,,0818.9,5.01,0.00,23.5,22.5,00.0,32.7,25.2,14.1,0000.0,0002.81,0002.05,0001.77
2022-03-30 07:58:00,,0818.9,5.00,0.00,23.5,22.6,00.0,32.7,25.1,14.0,0000.0,0002.85,0002.09,0001.82
2022-03-30 07:59:00,,0818.9,5.00,0.00,23.4,22.5,00.0,32.6,25.1,14.0,0000.0,0002.99,0002.15,0001.85
